loading
DOY 175 | 2024-06-23T18:48:24Z

MIDAS 4 DEB, 194

Orbit data source: Space-Track

MIDAS 4 DEB, 194 is space debris originally from a launch on Sat, 21 Oct 1961 UTC via an Atlas Agena B launch vehicle from the Air Force Western Test Range (AFWTR). Debris objects in space refer to the collection of defunct objects orbiting the Earth. Examples of debris include non-operational satellites, rocket bodies, and fragments generated from explosions, collisions, or faulty payload assembly.

Loading next visibility...
Loading greatness...
MIDAS 4 DEB details
NORAD ID194
COSPAR ID
1961-028C
Orbit
Active
Last TLE update2 days ago
Origin
Flag of USUSAF SSD (US)
ManufacturerMIT-LL
BusWestford
MotorUnknown
Mass30 kg wet, 30 kg dry
Launch date (UTC)
1961-10-21 (63 years ago)
Launch vehicle
Atlas Agena B
Launch site
Air Force Western Test Range (AFWTR)
Object type
Payload
Rocket body
Debris
Radar Cross Section0.63 m², Medium (>0.1 m² and < 1m²)
Predictive object data (real-time)
Latitude-56.59076°
Longitude124.07283°
Altitude3,855.807 km
Speed6.17 km/s
Apparent Right ascension10h 36m 16s
Apparent Declination-82° 52' 04"
Sunlit
Object is in daylight
Predictive observer data (real-time)
Local Sidereal Time05:57:39
Azimuth171.604° S
Elevation-37.128°
Doppler factor1
Orbital elements
Apogee3,995.731 km
Perigee3,214.438 km
Semi-major axis9,983.222 km
Eccentricity0.0391303
Inclination95.863°
RAAN95.3283°
Arg. of periapsis177.3867°
True anomaly182.69705°
Mean anomaly182.9144°
Mean motion2.17589 °/min
BSTAR0.019016
Period165.45 mins
Definitive object data (Epoch: 2024-06-22T04:38:37.069Z)
Latitude0.00006°
Longitude114.81351°
Altitude3,999.686 km
Speed6.076 km/s
True Right ascension06h 21m 18s
True Declination0° 00' 00"
Sunlit
Object was in daylight at TLE epoch
TLE from 2 days ago
0 MIDAS 4 DEB
1 00194U 61028C   24174.19348460  .00000043  00000-0  19016-1 0  9999
2 00194  95.8630  95.3283 0391303 177.3867 182.9144  8.70076401990218
Epoch: 2024-06-22T04:38Z
No data available

MIDAS 4 DEB Visibility forecast

Observer location: 39.9160978°, -105.1181434, 0m alt.

MIDAS 4 DEB is not visible in the next 10 days
Span
Click to sort rows by Start time (UTC) header in descending order
Start Az.
Max El. time (UTC)
Max El. Az.
Max El.
End time (UTC)
End Az.